STARLINK-6034 (56324 NORAD) Tracking and Keplerian Element Data

This shows tracking and keplerian element data for the satellite.

Feedback or suggestion? Click here.




ElementValue
Catalog56324
NameSTARLINK-6034
Epoch Orbit179
Epoch Day126.91667824
Epoch Year2023
RAAN126.3808
Inclination97.6627
Eccentricity0.0001575
Argument of Perigee93.6951
Mean Anonmoly121.1599
Mean Motion15.68121647
Decay Rate-0.00796811
L11 56324U 23058H 23126.91667824 -.00796811 00000+0 -78960-2 0 9990
L22 56324 97.6627 126.3808 0001575 93.6951 121.1599 15.68121647 1794



Live tracking and technical data element details for STARLINK-6034 (NORAD 56324). STARLINK-6034 can be tracked NOW for your location showing map with azimuth and elevation plus other details from your city location.







IsCatalogInMostPopularTable: catalog: 56324, numindb: 3
Update: records affected: 1



GetName: 56324 STARLINK-6034

Hit Count: updated at: Sat, 03 Jun 2023 18:10:31 GMT